When you browse on this site, cookies collect data to enhance your experience and personalize the content and advertising you see.
Visit our Privacy Policy to learn more. By continuing to use the site, you agree to this use of cookies and data.
  • In Czech Republic
  • List of Countries
  • For 7 days
  • Water Temperature
  • Satellite Maps
  • Weather Map
  • Weather Widgets
  • user-avatar
    Login

    Hourly Weather Ustrzyki Dolne

    Today, 16 December, Sunday

    Time Temperature Precipitation Wind Pressure Humidity
    00:00 -7°C° 0.1 mm 4 mps 713 mmHg 87%
    01:00 -7°C° 0.1 mm 4 mps 713 mmHg 87%
    02:00 -5°C° 0 mm 2 mps 713 mmHg 89%
    03:00 -5°C° 0.1 mm 2 mps 713 mmHg 89%
    04:00 -5°C° 0.1 mm 2 mps 713 mmHg 89%
    05:00 -6°C° 0.1 mm 3 mps 712 mmHg 88%
    06:00 -5°C° 0.1 mm 2 mps 712 mmHg 89%
    07:00 -5°C° 0.1 mm 2 mps 712 mmHg 89%
    08:00 -5°C° 0 mm 2 mps 712 mmHg 90%
    09:00 -4°C° 0.1 mm 2 mps 712 mmHg 88%
    10:00 -4°C° 0.1 mm 2 mps 712 mmHg 87%
    11:00 -3°C° 0.1 mm 2 mps 713 mmHg 86%
    12:00 -3°C° 0.1 mm 2 mps 713 mmHg 86%
    13:00 0°C° 0.1 mm 1 mps 713 mmHg 86%
    14:00 0°C° 0 mm 1 mps 712 mmHg 84%
    15:00 -1°C° 0 mm 1 mps 712 mmHg 87%
    16:00 -1°C° 0 mm 1 mps 712 mmHg 90%
    17:00 -2°C° 0 mm 1 mps 713 mmHg 93%
    18:00 -2°C° 0.1 mm 1 mps 713 mmHg 93%
    19:00 -2°C° 0.1 mm 1 mps 713 mmHg 94%
    20:00 -2°C° 0.1 mm 1 mps 713 mmHg 95%
    21:00 -2°C° 0.2 mm 1 mps 713 mmHg 95%
    22:00 -2°C° 0.2 mm 1 mps 713 mmHg 95%
    23:00 -2°C° 0.2 mm 1 mps 713 mmHg 96%

    Tomorrow, 17 December, Monday

    Time Temperature Precipitation Wind Pressure Humidity
    00:00 -2°C° 0.1 mm 1 mps 713 mmHg 96%
    01:00 -2°C° 0.1 mm 1 mps 713 mmHg 96%
    02:00 -2°C° 0.1 mm 1 mps 714 mmHg 96%
    03:00 -2°C° 0.1 mm 1 mps 713 mmHg 96%
    04:00 -2°C° 0.1 mm 1 mps 713 mmHg 95%
    05:00 -2°C° 0.1 mm 1 mps 713 mmHg 95%
    06:00 -2°C° 0 mm 1 mps 713 mmHg 95%
    07:00 -3°C° 0 mm 1 mps 713 mmHg 95%
    08:00 -3°C° 0 mm 1 mps 713 mmHg 95%
    09:00 -3°C° 0 mm 0 mps 713 mmHg 93%
    10:00 -2°C° 0 mm 0 mps 714 mmHg 90%
    11:00 -2°C° 0 mm 0 mps 714 mmHg 88%
    12:00 -1°C° 0 mm 0 mps 714 mmHg 88%
    13:00 0°C° 0 mm 1 mps 714 mmHg 88%
    14:00 0°C° 0 mm 1 mps 714 mmHg 88%
    15:00 -1°C° 0 mm 1 mps 714 mmHg 90%
    16:00 -1°C° 0 mm 1 mps 715 mmHg 92%
    17:00 -2°C° 0 mm 1 mps 715 mmHg 94%
    18:00 -2°C° 0 mm 1 mps 715 mmHg 94%
    19:00 -3°C° 0 mm 1 mps 715 mmHg 93%
    20:00 -3°C° 0 mm 1 mps 716 mmHg 93%
    21:00 -3°C° 0 mm 1 mps 716 mmHg 93%
    22:00 -3°C° 0 mm 1 mps 716 mmHg 92%
    23:00 -4°C° 0 mm 1 mps 716 mmHg 91%

    Day after tomorrow, 18 December, Tuesday

    Time Temperature Precipitation Wind Pressure Humidity
    00:00 -4°C° 0 mm 1 mps 717 mmHg 91%
    01:00 -4°C° 0 mm 1 mps 717 mmHg 91%
    02:00 -4°C° 0 mm 1 mps 717 mmHg 91%
    03:00 -4°C° 0 mm 1 mps 717 mmHg 91%
    04:00 -4°C° 0 mm 1 mps 717 mmHg 92%
    05:00 -4°C° 0 mm 1 mps 717 mmHg 93%
    06:00 -6°C° 0 mm 1 mps 718 mmHg 93%
    07:00 -6°C° 0 mm 1 mps 718 mmHg 93%
    08:00 -6°C° 0 mm 1 mps 718 mmHg 94%
    09:00 -4°C° 0 mm 1 mps 719 mmHg 92%
    10:00 -3°C° 0 mm 1 mps 719 mmHg 89%
    11:00 -2°C° 0 mm 1 mps 719 mmHg 87%
    12:00 -2°C° 0 mm 1 mps 719 mmHg 86%
    13:00 -2°C° 0 mm 1 mps 719 mmHg 85%
    14:00 -1°C° 0 mm 1 mps 719 mmHg 84%
    15:00 -2°C° 0 mm 1 mps 719 mmHg 87%
    16:00 -3°C° 0 mm 1 mps 719 mmHg 90%
    17:00 -5°C° 0 mm 0 mps 719 mmHg 93%
    18:00 -4°C° 0 mm 1 mps 719 mmHg 93%
    19:00 -4°C° 0 mm 1 mps 719 mmHg 93%
    20:00 -4°C° 0 mm 1 mps 719 mmHg 94%
    21:00 -6°C° 0 mm 1 mps 719 mmHg 94%
    22:00 -6°C° 0 mm 1 mps 719 mmHg 93%
    23:00 -6°C° 0 mm 1 mps 718 mmHg 93%

    19 December, Wednesday

    Time Temperature Precipitation Wind Pressure Humidity
    00:00 -6°C° 0 mm 1 mps 718 mmHg 93%
    01:00 -6°C° 0 mm 1 mps 718 mmHg 93%
    02:00 -6°C° 0 mm 1 mps 718 mmHg 92%
    03:00 -6°C° 0 mm 1 mps 718 mmHg 92%
    04:00 -7°C° 0 mm 1 mps 718 mmHg 91%
    05:00 -7°C° 0 mm 1 mps 718 mmHg 91%
    06:00 -7°C° 0 mm 1 mps 718 mmHg 90%
    07:00 -7°C° 0 mm 1 mps 718 mmHg 90%
    08:00 -7°C° 0 mm 1 mps 718 mmHg 90%
    09:00 -7°C° 0 mm 2 mps 718 mmHg 87%
    10:00 -6°C° 0 mm 2 mps 718 mmHg 84%
    11:00 -5°C° 0 mm 2 mps 718 mmHg 82%
    12:00 -4°C° 0 mm 2 mps 718 mmHg 81%
    13:00 -4°C° 0 mm 2 mps 718 mmHg 81%
    14:00 -3°C° 0 mm 2 mps 718 mmHg 80%
    15:00 -4°C° 0 mm 2 mps 717 mmHg 84%
    16:00 -5°C° 0 mm 2 mps 717 mmHg 88%
    17:00 -6°C° 0 mm 2 mps 717 mmHg 92%
    18:00 -7°C° 0 mm 2 mps 717 mmHg 92%
    19:00 -7°C° 0 mm 2 mps 717 mmHg 93%
    20:00 -7°C° 0 mm 2 mps 717 mmHg 93%
    21:00 -7°C° 0 mm 2 mps 717 mmHg 92%
    22:00 -7°C° 0 mm 2 mps 717 mmHg 92%
    23:00 -7°C° 0 mm 2 mps 717 mmHg 91%

    20 December, Thursday

    Time Temperature Precipitation Wind Pressure Humidity
    00:00 -7°C° 0 mm 2 mps 717 mmHg 90%
    01:00 -7°C° 0 mm 2 mps 717 mmHg 90%
    02:00 -8°C° 0 mm 2 mps 717 mmHg 89%
    03:00 -7°C° 0 mm 2 mps 716 mmHg 89%
    04:00 -7°C° 0 mm 2 mps 716 mmHg 88%
    05:00 -7°C° 0 mm 2 mps 716 mmHg 87%
    06:00 -7°C° 0 mm 2 mps 716 mmHg 87%
    07:00 -7°C° 0 mm 2 mps 716 mmHg 87%
    08:00 -7°C° 0 mm 2 mps 716 mmHg 87%
    09:00 -6°C° 0 mm 2 mps 716 mmHg 84%
    10:00 -5°C° 0 mm 2 mps 716 mmHg 81%
    11:00 -4°C° 0 mm 2 mps 716 mmHg 79%
    12:00 -3°C° 0 mm 2 mps 716 mmHg 78%
    13:00 -4°C° 0 mm 3 mps 716 mmHg 78%
    14:00 -2°C° 0 mm 3 mps 715 mmHg 77%
    15:00 -3°C° 0.1 mm 2 mps 715 mmHg 79%
    16:00 -3°C° 0.1 mm 2 mps 715 mmHg 81%
    17:00 -3°C° 0.1 mm 2 mps 715 mmHg 84%
    18:00 -3°C° 0.1 mm 2 mps 715 mmHg 83%
    19:00 -3°C° 0.1 mm 2 mps 715 mmHg 83%
    20:00 -3°C° 0.1 mm 2 mps 715 mmHg 82%
    21:00 -3°C° 0.1 mm 2 mps 715 mmHg 81%
    22:00 -3°C° 0.1 mm 2 mps 715 mmHg 80%
    23:00 -3°C° 0.1 mm 2 mps 714 mmHg 79%

    21 December, Friday

    Time Temperature Precipitation Wind Pressure Humidity
    00:00 -3°C° 0.1 mm 2 mps 714 mmHg 79%
    01:00 -3°C° 0.1 mm 2 mps 714 mmHg 80%
    02:00 -1°C° 0.1 mm 1 mps 714 mmHg 80%
    03:00 -1°C° 0.1 mm 1 mps 714 mmHg 80%
    04:00 -1°C° 0.1 mm 1 mps 713 mmHg 81%
    05:00 -2°C° 0.1 mm 1 mps 713 mmHg 81%
    06:00 -2°C° 0 mm 1 mps 713 mmHg 82%
    07:00 -2°C° 0 mm 1 mps 713 mmHg 83%
    08:00 -2°C° 0 mm 1 mps 713 mmHg 83%
    09:00 -2°C° 0.1 mm 1 mps 713 mmHg 85%
    10:00 -1°C° 0.1 mm 1 mps 713 mmHg 86%
    11:00 -1°C° 0.1 mm 1 mps 713 mmHg 87%
    12:00 -1°C° 0.1 mm 1 mps 713 mmHg 87%
    13:00 0°C° 0.1 mm 1 mps 713 mmHg 88%
    14:00 0°C° 0.1 mm 1 mps 713 mmHg 89%
    15:00 -1°C° 0 mm 1 mps 713 mmHg 91%
    16:00 -1°C° 0 mm 1 mps 713 mmHg 92%
    17:00 -2°C° 0 mm 1 mps 713 mmHg 94%
    18:00 -2°C° 0 mm 1 mps 713 mmHg 93%
    19:00 -2°C° 0 mm 1 mps 713 mmHg 93%
    20:00 -2°C° 0 mm 1 mps 713 mmHg 93%
    21:00 -4°C° 0 mm 2 mps 713 mmHg 93%
    22:00 -4°C° 0 mm 2 mps 713 mmHg 92%
    23:00 -4°C° 0 mm 2 mps 713 mmHg 92%
    Show more